Location: Carrières
(48.9495°N, 2.0407°E)
Time: 08:27:28
(UTC+00:00)

Tiros 1 despin weight - Pass Details

Date: 23 April 2024
Orbit: 578 x 621 km, 48.2° (Epoch: 25 May)

Event Time Altitude Azimuth Distance (km) Brightness Sun altitude
Rises 15:20:48 0° 279° (W) 2,852 ? 33.8°
Reaches altitude 10° 15:23:05 10° 276° (W) 1,955 ? 33.4°
Maximum altitude 15:27:33 67° 194° (SSW) 665 ? 32.7°
Drops below altitude 10° 15:32:03 10° 113° (ESE) 1,975 ? 32.0°
Sets 15:34:23 0° 110° (ESE) 2,884 ? 31.7°
